This is the latest recevied weather packets stored in our database for station/object N9ALD. If no packets are shown the sender has not sent any weather packets the latest 10 day(s).
| Time | Temp. | Humidity | Pressure | Rain* | Wind** | Luminosity | Snow |
|---|---|---|---|---|---|---|---|
| 1777208089 | 10.56° C | 87% | 1014.1 hPa | 0 mm | - | 129 W/m² | - |
| 1777207784 | 10.56° C | 86% | 1013.8 hPa | 0 mm | - | 126 W/m² | - |
| 1777207479 | 10.56° C | 86% | 1013.8 hPa | 0 mm | - | 116 W/m² | - |
| 1777207178 | 10.56° C | 87% | 1013.8 hPa | 0 mm | - | 111 W/m² | - |
| 1777206874 | 10.56° C | 88% | 1013.8 hPa | 0 mm | - | 99 W/m² | - |
| 1777206569 | 10.56° C | 88% | 1013.8 hPa | 0 mm | - | 99 W/m² | - |
| 1777206265 | 10° C | 89% | 1013.7 hPa | 0 mm | - | 95 W/m² | - |
| 1777205965 | 10° C | 89% | 1013.8 hPa | 0 mm | - | 86 W/m² | - |
| 1777205662 | 10° C | 89% | 1013.8 hPa | 0 mm | - | 74 W/m² | - |
| 1777205360 | 9.44° C | 90% | 1013.5 hPa | 0 mm | - | 71 W/m² | - |
| 1777205060 | 9.44° C | 90% | 1013.6 hPa | 0 mm | - | 66 W/m² | - |
| 1777204756 | 9.44° C | 90% | 1013.3 hPa | 0 mm | - | 56 W/m² | - |
| 1777204450 | 9.44° C | 90% | 1013.5 hPa | 0 mm | - | 48 W/m² | - |
| 1777204147 | 9.44° C | 89% | 1013.5 hPa | 0 mm | - | 39 W/m² | - |
| 1777203842 | 9.44° C | 90% | 1013.3 hPa | 0 mm | - | 34 W/m² | - |
| 1777203537 | 9.44° C | 90% | 1013.5 hPa | 0 mm | - | 32 W/m² | - |
| 1777203233 | 9.44° C | 90% | 1013.1 hPa | 0 mm | - | 28 W/m² | - |
| 1777202931 | 9.44° C | 89% | 1013.1 hPa | 0 mm | - | 24 W/m² | - |
| 1777202630 | 9.44° C | 89% | 1013.3 hPa | 0 mm | - | 20 W/m² | - |
| 1777202325 | 9.44° C | 89% | 1013 hPa | 0 mm | - | 16 W/m² | - |
| 1777202020 | 10° C | 89% | 1012.8 hPa | 0 mm | - | 13 W/m² | - |
| 1777201717 | 10° C | 88% | 1012.9 hPa | 0 mm | - | 10 W/m² | - |
| 1777201413 | 10° C | 88% | 1012.8 hPa | 0 mm | - | 7 W/m² | - |
| 1777201109 | 10° C | 88% | 1012.8 hPa | 0 mm | - | 4 W/m² | - |
| 1777200805 | 10.56° C | 88% | 1012.9 hPa | 0 mm | - | 2 W/m² | - |
* Rain latest hour (hover to see other rain measurements)
** Current wind speed in m/s (hover to see current wind gust speed)